Total_Precipitation_Accumulation
0.94 1.04 1.13 1.42 1.65 1.80 1.96 2.08 2.18 2.25 2.48 2.64 2.62 2.55 2.39 2.16 2.04 2.01 1.88 1.75 1.65 1.66 1.64 1.50 1.40 1.35 1.27 1.16 1.07 0.98 0.93 0.89 0.85 0.83 0.71 0.58 0.53 0.50 0.45 0.41 0.39 0.36 0.34
0.83 0.93 1.00 1.15 1.33 1.53 1.77 1.98 2.07 2.18 2.20 2.28 2.48 2.63 2.70 2.50 2.20 2.04 1.96 1.84 1.75 1.72 1.67 1.63 1.56 1.48 1.42 1.39 1.34 1.28 1.18 1.11 1.11 1.10 1.05 0.87 0.69 0.53 0.47 0.48 0.46 0.42 0.40
0.68 0.77 0.85 1.06 1.19 1.32 1.56 1.86 2.01 2.12 2.13 2.17 2.42 2.64 2.79 2.63 2.33 1.99 1.83 1.84 1.86 1.84 1.74 1.71 1.72 1.62 1.53 1.45 1.41 1.37 1.31 1.24 1.22 1.24 1.28 1.12 0.84 0.60 0.48 0.43 0.43 0.43 0.43
0.58 0.64 0.75 0.90 1.02 1.18 1.36 1.53 1.72 1.89 2.07 2.13 2.18 2.24 2.35 2.34 2.13 2.02 1.93 1.94 1.93 1.92 1.86 1.80 1.79 1.74 1.65 1.51 1.45 1.40 1.31 1.27 1.23 1.23 1.17 1.07 0.89 0.81 0.66 0.48 0.44 0.45 0.45
0.58 0.59 0.71 0.87 0.92 1.05 1.29 1.42 1.50 1.68 1.88 2.03 2.10 2.21 2.17 2.19 2.26 2.21 2.14 2.05 1.99 1.93 1.85 1.80 1.79 1.71 1.64 1.60 1.61 1.54 1.48 1.37 1.28 1.23 1.20 1.17 1.02 0.86 0.82 0.65 0.50 0.50 0.50
0.68 0.72 0.79 0.85 0.88 0.93 1.14 1.35 1.38 1.47 1.59 1.80 2.03 2.11 2.02 2.03 2.07 2.05 2.01 2.01 2.00 1.97 1.87 1.75 1.70 1.67 1.64 1.61 1.63 1.67 1.60 1.53 1.45 1.36 1.28 1.28 1.21 1.04 0.98 0.89 0.67 0.59 0.54
0.65 0.72 0.78 0.75 0.77 0.83 0.97 1.16 1.26 1.36 1.42 1.56 1.72 1.92 2.00 1.97 1.98 1.99 1.95 1.87 1.78 1.71 1.69 1.70 1.65 1.60 1.55 1.56 1.57 1.62 1.60 1.54 1.48 1.41 1.35 1.32 1.26 1.17 1.14 1.08 0.90 0.76 0.64
0.51 0.56 0.65 0.69 0.74 0.77 0.82 0.91 0.98 1.06 1.13 1.20 1.32 1.48 1.70 1.80 1.75 1.78 1.77 1.74 1.66 1.63 1.63 1.62 1.62 1.62 1.59 1.55 1.56 1.56 1.56 1.55 1.46 1.35 1.29 1.24 1.18 1.18 1.20 1.18 1.17 1.12 0.90
0.50 0.51 0.58 0.61 0.67 0.73 0.78 0.80 0.83 0.89 0.97 0.99 1.06 1.13 1.31 1.47 1.53 1.57 1.54 1.46 1.45 1.51 1.52 1.50 1.51 1.53 1.54 1.51 1.52 1.51 1.48 1.48 1.45 1.38 1.30 1.19 1.08 1.07 1.08 1.10 1.16 1.28 1.19
0.49 0.47 0.52 0.55 0.59 0.66 0.73 0.73 0.75 0.78 0.90 0.93 0.96 0.99 1.05 1.15 1.30 1.40 1.32 1.27 1.28 1.31 1.34 1.32 1.32 1.35 1.36 1.36 1.38 1.36 1.33 1.31 1.27 1.27 1.27 1.22 1.13 1.10 1.11 1.16 1.20 1.27 1.32
0.49 0.50 0.53 0.55 0.59 0.66 0.67 0.65 0.72 0.76 0.85 0.89 0.85 0.85 0.89 0.93 1.00 1.09 1.12 1.09 1.12 1.11 1.11 1.12 1.12 1.11 1.15 1.18 1.21 1.17 1.17 1.20 1.19 1.17 1.20 1.22 1.19 1.20 1.19 1.24 1.30 1.34 1.40
0.46 0.46 0.47 0.51 0.56 0.59 0.57 0.56 0.63 0.69 0.79 0.82 0.77 0.76 0.80 0.83 0.86 0.89 0.94 0.94 0.96 0.99 0.99 1.00 0.99 0.96 0.94 0.98 1.02 1.04 1.04 1.05 1.07 1.10 1.15 1.17 1.18 1.24 1.26 1.31 1.34 1.36 1.35
0.33 0.33 0.35 0.37 0.39 0.40 0.42 0.49 0.53 0.52 0.57 0.60 0.57 0.58 0.60 0.65 0.71 0.74 0.75 0.77 0.82 0.86 0.88 0.89 0.90 0.90 0.87 0.89 0.91 0.91 0.92 0.94 0.95 0.97 0.99 1.00 1.04 1.11 1.15 1.20 1.25 1.25 1.24
0.25 0.27 0.29 0.28 0.29 0.31 0.34 0.39 0.38 0.40 0.45 0.46 0.45 0.45 0.48 0.50 0.55 0.58 0.58 0.60 0.64 0.69 0.72 0.77 0.80 0.80 0.81 0.85 0.89 0.91 0.91 0.88 0.87 0.87 0.89 0.91 0.95 0.99 1.05 1.12 1.16 1.17 1.18
0.20 0.23 0.24 0.24 0.26 0.27 0.28 0.30 0.33 0.39 0.44 0.46 0.46 0.43 0.42 0.44 0.48 0.51 0.52 0.51 0.53 0.53 0.55 0.60 0.67 0.72 0.74 0.77 0.81 0.84 0.87 0.88 0.88 0.90 0.94 0.99 1.09 1.09 1.05 1.02 1.02 1.04 1.10
0.15 0.17 0.18 0.20 0.22 0.24 0.27 0.30 0.36 0.44 0.48 0.51 0.47 0.44 0.42 0.41 0.39 0.39 0.41 0.41 0.42 0.43 0.46 0.51 0.54 0.60 0.67 0.85 0.83 0.78 0.78 0.86 0.91 0.93 0.93 0.96 1.07 1.04 1.02 0.97 0.92 0.94 1.01
0.12 0.13 0.14 0.18 0.20 0.27 0.33 0.38 0.43 0.50 0.52 0.55 0.50 0.46 0.42 0.40 0.37 0.35 0.35 0.37 0.40 0.42 0.46 0.48 0.52 0.57 0.71 0.89 0.86 0.89 0.80 0.83 0.88 0.91 0.89 0.85 0.82 0.84 0.76 0.81 0.85 0.86 0.85
0.08 0.09 0.10 0.12 0.14 0.19 0.28 0.35 0.42 0.54 0.56 0.55 0.53 0.52 0.52 0.53 0.55 0.54 0.54 0.55 0.54 0.56 0.61 0.66 0.69 0.72 0.82 0.89 0.82 0.79 0.72 0.75 0.77 0.75 0.73 0.70 0.65 0.63 0.64 0.66 0.71 0.63 0.59
0.06 0.06 0.07 0.08 0.08 0.11 0.18 0.27 0.39 0.54 0.66 0.71 0.69 0.70 0.74 0.79 0.84 0.86 0.85 0.84 0.85 0.85 0.83 0.80 0.76 0.72 0.73 0.75 0.71 0.66 0.60 0.61 0.59 0.56 0.56 0.56 0.53 0.61 0.69 0.64 0.60 0.54 0.52
0.08 0.07 0.07 0.09 0.11 0.13 0.20 0.33 0.49 0.64 0.74 0.77 0.81 0.84 0.90 0.98 0.96 0.95 0.93 0.86 0.80 0.79 0.78 0.76 0.72 0.65 0.59 0.55 0.51 0.49 0.45 0.43 0.40 0.39 0.39 0.46 0.47 0.57 0.65 0.58 0.56 0.53 0.45
0.18 0.18 0.19 0.22 0.24 0.26 0.35 0.50 0.60 0.68 0.72 0.72 0.73 0.76 0.75 0.77 0.76 0.75 0.73 0.69 0.63 0.57 0.53 0.49 0.45 0.41 0.39 0.38 0.37 0.37 0.34 0.34 0.36 0.36 0.34 0.36 0.47 0.53 0.57 0.58 0.50 0.50 0.53
0.22 0.29 0.35 0.38 0.38 0.40 0.47 0.55 0.56 0.55 0.53 0.51 0.49 0.46 0.42 0.39 0.40 0.41 0.43 0.43 0.40 0.36 0.33 0.31 0.29 0.26 0.25 0.27 0.29 0.33 0.36 0.38 0.36 0.34 0.32 0.35 0.48 0.54 0.55 0.52 0.51 0.58 0.61
0.10 0.14 0.21 0.25 0.25 0.25 0.28 0.30 0.27 0.24 0.21 0.18 0.16 0.15 0.13 0.13 0.15 0.16 0.18 0.21 0.24 0.24 0.24 0.23 0.23 0.23 0.22 0.24 0.28 0.32 0.38 0.43 0.40 0.35 0.38 0.42 0.47 0.50 0.48 0.49 0.53 0.54 0.51
0.05 0.06 0.07 0.08 0.08 0.08 0.09 0.10 0.08 0.06 0.06 0.05 0.06 0.06 0.07 0.09 0.10 0.12 0.13 0.15 0.16 0.18 0.20 0.22 0.22 0.21 0.21 0.22 0.25 0.30 0.35 0.42 0.43 0.41 0.41 0.44 0.44 0.44 0.43 0.46 0.47 0.46 0.46
0.06 0.06 0.06 0.06 0.06 0.06 0.06 0.07 0.07 0.07 0.07 0.07 0.07 0.07 0.08 0.09 0.10 0.11 0.12 0.14 0.15 0.17 0.22 0.24 0.25 0.27 0.26 0.24 0.33 0.40 0.41 0.44 0.48 0.52 0.49 0.45 0.42 0.40 0.39 0.39 0.40 0.42 0.44
0.07 0.07 0.07 0.08 0.09 0.10 0.11 0.11 0.12 0.12 0.12 0.12 0.12 0.11 0.12 0.12 0.13 0.13 0.14 0.15 0.17 0.19 0.22 0.24 0.26 0.25 0.27 0.31 0.39 0.44 0.47 0.52 0.59 0.64 0.55 0.44 0.38 0.37 0.38 0.39 0.41 0.42 0.43